N8QF-1 Weather Reports


Display with metric or nautical units.
time (UTC)temp
F
wind
direction
speed
MPH
gust
MPH
rain 1hr
in
rain 24hr
in
rain mn
in
humidity
%
barometer
mb
20260508073324 48 233 0.0 0.0 0.00 0.00 0.00 66 1014.1
20260508072824 48 207 0.0 0.0 0.00 0.00 0.00 66 1014.0
20260508072323 48 207 0.0 2.0 0.00 0.00 0.00 65 1014.1
20260508071823 48 207 0.0 2.0 0.00 0.00 0.00 64 1014.1
20260508071322 48 201 0.0 9.0 0.00 0.00 0.00 64 1014.2
20260508070822 48 253 1.0 0.0 0.00 0.00 0.00 65 1014.3
20260508070321 48 239 0.0 4.0 0.00 0.00 0.00 65 1014.3
20260508065821 48 215 2.0 3.0 0.00 0.00 0.00 65 1014.3
20260508065320 48 264 0.0 4.0 0.00 0.00 0.00 66 1014.4
20260508064820 47 86 0.0 4.0 0.00 0.00 0.00 67 1014.3
20260508064319 47 79 0.0 1.0 0.00 0.00 0.00 68 1014.4
20260508063819 47 184 0.0 0.0 0.00 0.00 0.00 69 1014.5
20260508063318 47 184 0.0 0.0 0.00 0.00 0.00 69 1014.6
20260508062818 47 184 0.0 0.0 0.00 0.00 0.00 69 1014.6
20260508062317 47 184 0.0 0.0 0.00 0.00 0.00 69 1014.7
20260508061817 47 184 0.0 0.0 0.00 0.00 0.00 68 1014.7
20260508061316 47 184 0.0 0.0 0.00 0.00 0.00 68 1014.7
20260508060815 47 184 0.0 0.0 0.00 0.00 0.00 68 1014.7
20260508060315 47 184 0.0 0.0 0.00 0.00 0.00 68 1014.8
20260508055815 47 184 0.0 0.0 0.00 0.00 0.00 69 1014.7
20260508055314 47 184 0.0 0.0 0.00 0.00 0.00 68 1014.7
20260508054813 47 184 0.0 0.0 0.00 0.00 0.00 67 1014.6
20260508054313 48 184 0.0 0.0 0.00 0.00 0.00 66 1014.7
20260508053813 48 184 0.0 0.0 0.00 0.00 0.00 65 1014.7
20260508053312 48 184 0.0 1.0 0.00 0.00 0.00 63 1014.8
20260508052811 49 162 0.0 0.0 0.00 0.00 0.00 63 1014.8
20260508052311 49 162 0.0 0.0 0.00 0.00 0.00 62 1014.8
20260508051810 50 162 0.0 0.0 0.00 0.00 0.00 60 1014.7
20260508051409 50 162 0.0 0.0 0.00 0.00 0.00 61 1014.7
20260508051310 50 162 0.0 0.0 0.00 0.00 0.00 61 1014.7
20260508050809 51 162 0.0 2.0 0.00 0.00 0.00 58 1014.6
20260508045808 51 188 0.0 5.0 0.00 0.00 0.00 56 1014.6
20260508045308 51 184 3.0 5.0 0.00 0.22 0.00 56 1014.7
20260508044807 51 239 2.0 0.0 0.00 0.22 0.00 56 1014.7
20260508044307 51 219 0.0 0.0 0.00 0.22 0.00 56 1014.6
20260508043806 51 219 0.0 3.0 0.00 0.22 0.00 56 1014.6
20260508043306 51 219 0.0 3.0 0.00 0.22 0.00 56 1014.5
20260508042805 52 214 2.0 4.0 0.00 0.22 0.00 55 1014.5
20260508042307 52 226 0.0 0.0 0.00 0.22 0.00 55 1014.5
20260508041303 52 226 0.0 5.0 0.00 0.22 0.00 54 1014.5
20260508040302 52 205 5.0 6.0 0.00 0.22 0.00 53 1014.5
20260508035803 53 203 0.0 7.0 0.00 0.22 0.00 52 1014.4
20260508035301 53 228 4.0 7.0 0.00 0.22 0.00 52 1014.3
20260508034300 53 191 3.0 6.0 0.00 0.22 0.00 52 1014.4
20260508033800 53 225 0.0 7.0 0.00 0.22 0.00 51 1014.5
20260508033259 53 205 4.0 6.0 0.00 0.22 0.00 51 1014.5
20260508032759 53 222 2.0 4.0 0.00 0.22 0.00 51 1014.5
20260508032258 53 211 0.0 6.0 0.00 0.22 0.00 50 1014.4
20260508031758 53 179 1.0 1.0 0.00 0.22 0.00 50 1014.3
20260508031257 54 259 0.0 3.0 0.00 0.22 0.00 50 1014.4
20260508030757 54 290 0.0 4.0 0.00 0.22 0.00 50 1014.5
20260508030256 54 186 0.0 3.0 0.00 0.22 0.00 50 1014.4
20260508025756 54 198 0.0 3.0 0.00 0.22 0.00 50 1014.3
20260508025255 54 198 0.0 5.0 0.00 0.22 0.00 50 1014.2
20260508024755 54 176 2.0 5.0 0.00 0.22 0.00 49 1014.2
20260508024254 54 149 3.0 3.0 0.00 0.22 0.00 48 1014.2
20260508023754 54 232 0.0 0.0 0.00 0.22 0.00 48 1014.4
20260508023253 54 232 0.0 1.0 0.00 0.22 0.00 48 1014.3
20260508022752 54 232 0.0 4.0 0.00 0.22 0.00 48 1014.4
20260508022252 54 231 3.0 2.0 0.00 0.22 0.00 48 1014.4
20260508021751 55 232 0.0 0.0 0.00 0.22 0.00 48 1014.4
20260508021251 55 232 0.0 1.0 0.00 0.22 0.00 48 1014.3
20260508020750 55 205 0.0 0.0 0.00 0.22 0.00 48 1014.2
20260508015749 55 217 2.0 0.0 0.00 0.22 0.00 46 1014.3
20260508014748 55 135 0.0 5.0 0.00 0.22 0.00 47 1014.2
20260508014248 55 188 3.0 0.0 0.00 0.22 0.00 48 1014.1
20260508013747 55 205 0.0 0.0 0.00 0.22 0.00 49 1014.2
20260508013247 56 205 0.0 0.0 0.00 0.22 0.00 47 1014.2
20260508012246 56 205 0.0 4.0 0.00 0.22 0.00 43 1014.3
20260508011745 56 242 0.0 0.0 0.00 0.22 0.00 44 1014.3
20260508011245 57 255 0.0 0.0 0.00 0.22 0.00 44 1014.3
20260508010744 57 255 0.0 0.0 0.00 0.22 0.00 42 1014.2
20260508010244 57 255 0.0 0.0 0.00 0.22 0.00 41 1014.1
20260508005743 58 255 0.0 0.0 0.00 0.22 0.00 40 1014.2
20260508005243 58 255 0.0 4.0 0.00 0.22 0.00 40 1014.2
20260508004742 58 255 2.0 5.0 0.00 0.22 0.00 39 1014.2
20260508003741 58 228 1.0 4.0 0.00 0.22 0.00 38 1014.1
20260508003240 58 260 0.0 6.0 0.00 0.22 0.00 38 1014.1
20260508002740 58 256 0.0 4.0 0.00 0.22 0.00 38 1014.1
20260508002239 59 269 2.0 5.0 0.00 0.22 0.00 38 1014.0
20260508001739 59 256 2.0 6.0 0.00 0.22 0.00 38 1013.8
20260508001238 59 239 3.0 7.0 0.00 0.22 0.00 37 1013.8
20260508000738 59 217 0.0 8.0 0.00 0.22 0.00 37 1013.8
20260508000237 59 229 4.0 6.0 0.00 0.22 0.00 36 1013.8
20260507235737 59 256 0.0 8.0 0.00 0.22 0.00 37 1013.8
20260507235236 60 325 4.0 6.0 0.00 0.22 0.00 36 1014.0
20260507234235 60 321 3.0 7.0 0.00 0.22 0.00 36 1013.8
20260507233234 60 269 4.0 9.0 0.00 0.22 0.00 35 1013.7
20260507232733 60 232 6.0 11.0 0.00 0.22 0.00 35 1013.8
20260507232233 60 232 5.0 9.0 0.00 0.22 0.00 35 1013.7
20260507231732 60 305 6.0 7.0 0.00 0.22 0.00 35 1014.0
20260507231231 60 277 5.0 10.0 0.00 0.22 0.00 34 1013.7
20260507230730 60 252 3.0 9.0 0.00 0.22 0.00 35 1013.7
20260507225729 60 295 4.0 9.0 0.00 0.22 0.00 34 1013.8
20260507224228 60 304 6.0 8.0 0.00 0.22 0.00 35 1013.7
20260507223727 60 245 4.0 8.0 0.00 0.22 0.00 35 1013.7
20260507223227 60 235 6.0 9.0 0.00 0.22 0.00 35 1013.6
20260507222726 60 322 5.0 12.0 0.00 0.22 0.00 35 1013.7
20260507222226 60 256 7.0 10.0 0.00 0.22 0.00 34 1013.7
20260507221725 60 323 7.0 7.0 0.00 0.22 0.00 34 1013.8
20260507221225 60 236 3.0 9.0 0.00 0.22 0.00 36 1014.0
20260507220724 60 294 5.0 9.0 0.00 0.22 0.00 37 1014.0
20260507220224 60 11 4.0 7.0 0.00 0.22 0.00 36 1014.1
20260507215722 59 281 5.0 11.0 0.00 0.22 0.00 37 1014.1
20260507215222 59 287 4.0 9.0 0.00 0.22 0.00 36 1014.1
20260507214721 59 263 3.0 9.0 0.00 0.22 0.00 37 1014.1
20260507214221 59 332 2.0 9.0 0.00 0.22 0.00 37 1014.1
20260507213720 59 319 6.0 12.0 0.00 0.22 0.00 38 1014.1
20260507213219 59 287 8.0 13.0 0.00 0.22 0.00 36 1014.2
20260507212719 60 288 7.0 14.0 0.00 0.22 0.00 35 1014.2
20260507212218 60 336 5.0 9.0 0.00 0.22 0.00 36 1014.2
20260507211718 59 235 7.0 12.0 0.00 0.22 0.00 34 1014.1
20260507211217 59 283 6.0 13.0 0.00 0.22 0.00 35 1014.2
20260507210717 59 332 8.0 16.0 0.00 0.22 0.00 36 1014.2
20260507210216 60 301 3.0 15.0 0.00 0.22 0.00 35 1014.1
20260507205716 60 240 3.0 11.0 0.00 0.22 0.00 35 1014.1
20260507204714 59 245 8.0 16.0 0.00 0.22 0.00 35 1014.0
20260507204212 59 233 6.0 17.0 0.00 0.22 0.00 37 1014.0
20260507203712 59 346 1.0 12.0 0.00 0.22 0.00 35 1014.0
20260507203211 59 325 9.0 9.0 0.00 0.22 0.00 37 1014.0
20260507202711 59 314 4.0 14.0 0.00 0.22 0.00 35 1014.1
20260507202210 59 297 6.0 16.0 0.00 0.22 0.00 35 1014.1
20260507201710 59 31 7.0 16.0 0.00 0.22 0.00 36 1014.2
20260507200709 59 318 5.0 8.0 0.00 0.22 0.00 36 1014.1
20260507195707 59 293 7.0 18.0 0.00 0.22 0.00 38 1014.1
20260507195207 59 278 11.0 13.0 0.00 0.22 0.00 36 1014.2
20260507194706 58 325 8.0 18.0 0.00 0.22 0.00 36 1014.3
20260507194206 58 311 5.0 12.0 0.00 0.22 0.00 38 1014.3
20260507193705 58 257 7.0 19.0 0.00 0.22 0.00 38 1014.5
20260507193205 58 298 8.0 13.0 0.00 0.22 0.00 37 1014.5
20260507192704 57 335 9.0 14.0 0.00 0.22 0.00 36 1014.4
20260507192204 58 285 8.0 14.0 0.00 0.22 0.00 38 1014.4
20260507191703 58 294 1.0 12.0 0.00 0.22 0.00 38 1014.4
20260507190202 59 319 6.0 13.0 0.00 0.22 0.00 37 1014.5
20260507185201 58 312 8.0 11.0 0.00 0.22 0.00 39 1014.6
20260507184700 58 347 4.0 14.0 0.00 0.22 0.00 40 1014.6
20260507184200 58 322 5.0 14.0 0.00 0.22 0.00 39 1014.5
20260507183659 57 319 11.0 18.0 0.00 0.22 0.00 39 1014.7
20260507183157 58 298 9.0 14.0 0.00 0.22 0.00 38 1014.8
20260507182656 57 300 8.0 14.0 0.00 0.22 0.00 39 1014.6
20260507182155 57 302 9.0 19.0 0.00 0.22 0.00 41 1014.7
20260507181655 56 298 13.0 15.0 0.00 0.22 0.00 40 1014.8
20260507181155 56 291 6.0 15.0 0.00 0.22 0.00 41 1014.7
20260507180654 56 318 9.0 18.0 0.00 0.22 0.00 41 1014.7
20260507180153 57 301 5.0 16.0 0.00 0.22 0.00 38 1014.8
20260507175653 57 305 9.0 16.0 0.00 0.22 0.00 38 1014.9
20260507175152 57 325 10.0 17.0 0.00 0.22 0.00 40 1015.0
20260507174652 56 293 12.0 20.0 0.00 0.22 0.00 39 1015.0
20260507174151 57 293 8.0 15.0 0.00 0.22 0.00 41 1015.0
20260507173651 57 308 6.0 14.0 0.00 0.22 0.00 41 1015.0
20260507173150 57 305 8.0 15.0 0.00 0.22 0.00 40 1015.1
20260507172650 56 283 4.0 15.0 0.00 0.22 0.00 41 1015.2
20260507172149 56 249 10.0 14.0 0.00 0.22 0.00 40 1015.3
20260507171649 56 266 9.0 16.0 0.00 0.22 0.00 40 1015.4
20260507171148 56 281 12.0 15.0 0.00 0.22 0.00 39 1015.4
20260507170648 55 14 5.0 14.0 0.00 0.22 0.00 42 1015.3
20260507170147 55 304 9.0 17.0 0.00 0.22 0.00 42 1015.5
20260507165647 55 280 13.0 18.0 0.00 0.22 0.00 42 1015.6
20260507165146 55 293 12.0 18.0 0.00 0.22 0.00 41 1015.5
20260507164646 54 281 8.0 18.0 0.00 0.22 0.00 42 1015.5
20260507164145 55 263 13.0 21.0 0.00 0.22 0.00 39 1015.7
20260507163644 55 354 5.0 14.0 0.00 0.22 0.00 41 1015.7
20260507163144 54 311 10.0 16.0 0.00 0.22 0.00 40 1015.8
20260507162143 54 308 9.0 15.0 0.00 0.22 0.00 42 1015.8
20260507161642 54 336 9.0 14.0 0.00 0.22 0.00 41 1015.9
20260507161142 53 252 6.0 15.0 0.00 0.22 0.00 43 1015.8
20260507160141 54 314 7.0 14.0 0.00 0.22 0.00 44 1015.8
20260507155640 54 305 4.0 12.0 0.00 0.22 0.00 44 1015.8
20260507155140 53 288 6.0 10.0 0.00 0.22 0.00 43 1015.8
20260507154139 53 297 7.0 15.0 0.00 0.22 0.00 45 1015.8
20260507153638 53 281 9.0 14.0 0.00 0.22 0.00 44 1015.8
20260507153138 53 269 9.0 14.0 0.00 0.22 0.00 43 1015.8
20260507152637 53 298 7.0 14.0 0.00 0.22 0.00 42 1015.8
20260507152137 52 318 10.0 18.0 0.00 0.22 0.00 42 1015.7
20260507151636 52 256 10.0 16.0 0.00 0.22 0.00 42 1015.6
20260507151136 53 288 5.0 17.0 0.00 0.22 0.00 42 1015.7
20260507150635 52 305 4.0 10.0 0.00 0.22 0.00 44 1015.6
20260507150135 52 347 7.0 12.0 0.00 0.22 0.00 43 1015.6
20260507145634 51 283 8.0 14.0 0.00 0.22 0.00 42 1015.6
20260507145134 52 318 4.0 12.0 0.00 0.22 0.00 43 1015.6
20260507144132 52 357 7.0 11.0 0.00 0.22 0.00 43 1015.6
20260507143632 52 281 4.0 15.0 0.00 0.22 0.00 45 1015.7
20260507142631 51 276 5.0 13.0 0.00 0.22 0.00 45 1015.7
20260507142130 51 287 6.0 13.0 0.00 0.22 0.00 43 1015.7
20260507140628 50 311 8.0 10.0 0.00 0.22 0.00 48 1015.8
20260507133623 50 255 6.0 11.0 0.00 0.22 0.00 46 1015.6
20260507133123 51 354 6.0 11.0 0.00 0.22 0.00 46 1015.6
20260507132622 50 319 5.0 9.0 0.00 0.22 0.00 49 1015.7
20260507131621 49 328 8.0 11.0 0.00 0.22 0.00 49 1015.6
20260507131120 50 346 1.0 11.0 0.00 0.22 0.00 50 1015.7
20260507130619 50 356 5.0 11.0 0.00 0.22 0.00 50 1015.7
20260507130119 49 340 4.0 8.0 0.00 0.22 0.00 51 1015.6
20260507125118 49 277 4.0 9.0 0.00 0.22 0.00 54 1015.7
20260507124617 49 287 5.0 8.0 0.00 0.22 0.00 57 1015.8
20260507123116 48 295 2.0 8.0 0.00 0.22 0.00 61 1015.7
20260507122115 47 290 1.0 8.0 0.00 0.22 0.00 63 1015.7
20260507121614 47 242 3.0 4.0 0.00 0.22 0.00 64 1015.7
20260507120113 46 231 0.0 0.0 0.00 0.22 0.00 67 1015.7
20260507115612 46 231 0.0 0.0 0.00 0.22 0.00 69 1015.6
20260507114610 45 231 0.0 0.0 0.00 0.22 0.00 71 1015.7
20260507114110 45 231 0.0 0.0 0.00 0.22 0.00 71 1015.7
20260507113609 44 231 0.0 0.0 0.00 0.22 0.00 73 1015.7
20260507113109 44 231 0.0 0.0 0.00 0.22 0.00 73 1015.8
20260507112610 43 231 0.0 0.0 0.00 0.22 0.00 75 1015.7
20260507112107 43 231 0.0 1.0 0.00 0.22 0.00 77 1015.6
20260507111607 43 277 0.0 0.0 0.00 0.22 0.00 78 1015.5
20260507111107 42 277 0.0 0.0 0.00 0.22 0.00 78 1015.4
20260507110606 42 277 0.0 0.0 0.00 0.22 0.00 79 1015.4
20260507110105 42 277 0.0 0.0 0.00 0.22 0.00 78 1015.3
20260507105605 42 277 0.0 0.0 0.00 0.22 0.00 78 1015.3
20260507105104 43 277 0.0 0.0 0.00 0.22 0.00 77 1015.2
20260507104602 43 277 0.0 0.0 0.00 0.22 0.00 77 1015.2
20260507103100 43 277 0.0 0.0 0.00 0.22 0.00 77 1015.0
20260507102600 43 277 0.0 0.0 0.00 0.22 0.00 77 1015.1
20260507102059 43 277 0.0 1.0 0.00 0.22 0.00 76 1015.1
20260507101559 43 350 0.0 0.0 0.00 0.22 0.00 76 1015.1
20260507101056 43 350 0.0 0.0 0.00 0.22 0.00 76 1015.1
20260507100556 44 350 0.0 0.0 0.00 0.22 0.00 76 1015.0
20260507100055 44 350 0.0 0.0 0.00 0.22 0.00 76 1015.0
20260507095553 44 350 0.0 0.0 0.00 0.22 0.00 76 1015.0
20260507095053 44 350 0.0 0.0 0.00 0.22 0.00 77 1015.0
20260507094052 44 350 0.0 2.0 0.00 0.22 0.00 78 1015.0
20260507093051 44 356 0.0 0.0 0.00 0.22 0.00 78 1015.0
20260507092550 44 356 0.0 1.0 0.00 0.22 0.00 78 1014.9
20260507092050 44 356 1.0 5.0 0.00 0.22 0.00 77 1014.8
20260507091548 44 343 3.0 4.0 0.00 0.22 0.00 77 1014.9
20260507091048 44 321 3.0 5.0 0.00 0.22 0.00 79 1014.8
20260507090547 44 321 1.0 3.0 0.00 0.22 0.00 80 1014.8
20260507090047 44 332 0.0 3.0 0.00 0.22 0.00 81 1014.7
20260507085544 44 330 2.0 3.0 0.00 0.22 0.00 81 1014.8
20260507084543 44 326 0.0 0.0 0.00 0.22 0.00 81 1014.7
20260507084043 44 326 0.0 0.0 0.00 0.22 0.00 81 1014.7
20260507083542 44 326 0.0 0.0 0.00 0.22 0.00 81 1014.6
20260507082541 45 326 0.0 0.0 0.00 0.22 0.00 81 1014.5
20260507082041 45 326 0.0 0.0 0.00 0.22 0.00 81 1014.6
20260507081540 45 326 0.0 0.0 0.00 0.22 0.00 82 1014.5
20260507081040 45 326 0.0 0.0 0.00 0.22 0.00 82 1014.6
20260507080539 45 326 0.0 0.0 0.00 0.22 0.00 82 1014.6
20260507080038 45 326 0.0 0.0 0.00 0.22 0.00 82 1014.6
20260507075538 45 326 0.0 0.0 0.00 0.22 0.00 82 1014.6
20260507075037 45 326 0.0 0.0 0.00 0.22 0.00 82 1014.6
20260507074537 45 326 0.0 0.0 0.00 0.22 0.00 82 1014.5
20260507074036 45 326 0.0 4.0 0.00 0.22 0.00 82 1014.5